Time,TemperatureF,DewpointF,PressureIn,WindDirection,WindDirectionDegrees,WindSpeedMPH,WindSpeedGustMPH,Humidity,HourlyPrecipIn,Conditions,Clouds,dailyrainin,SoftwareType,DateUTC
2015-08-01 00:03:00,63.0,-99.9,29.94,WSW,253,11.0,17.0,-999,-99.99,,,-99.99,,2015-08-01 07:03:00,
2015-08-01 00:13:00,64.0,-99.9,29.94,West,263,11.0,14.0,-999,-99.99,,,-99.99,,2015-08-01 07:13:00,
2015-08-01 00:34:00,63.0,-99.9,29.94,West,261,16.0,19.0,-999,-99.99,,,-99.99,,2015-08-01 07:34:00,
2015-08-01 01:04:00,63.0,-99.9,29.94,West,263,13.0,17.0,-999,-99.99,,,-99.99,,2015-08-01 08:04:00,
2015-08-01 01:13:00,63.0,-99.9,29.94,WSW,257,14.0,17.0,-999,-99.99,,,-99.99,,2015-08-01 08:13:00,
2015-08-01 01:34:00,63.0,-99.9,29.94,West,264,12.0,19.0,-999,-99.99,,,-99.99,,2015-08-01 08:34:00,
2015-08-01 01:43:00,63.0,-99.9,29.94,West,259,13.0,17.0,-999,-99.99,,,-99.99,,2015-08-01 08:43:00,
2015-08-01 01:54:00,63.0,-99.9,29.94,West,260,13.0,16.0,-999,-99.99,,,-99.99,,2015-08-01 08:54:00,
2015-08-01 02:04:00,63.0,-99.9,29.93,West,263,14.0,18.0,-999,-99.99,,,-99.99,,2015-08-01 09:04:00,
2015-08-01 02:13:00,63.0,-99.9,29.93,WSW,250,13.0,18.0,-999,-99.99,,,-99.99,,2015-08-01 09:13:00,
2015-08-01 02:34:00,63.0,-99.9,29.93,WSW,257,12.0,17.0,-999,-99.99,,,-99.99,,2015-08-01 09:34:00,
2015-08-01 02:44:00,63.0,-99.9,29.93,West,264,15.0,17.0,-999,-99.99,,,-99.99,,2015-08-01 09:44:00,
2015-08-01 02:56:00,63.0,-99.9,29.93,West,269,15.0,19.0,-999,-99.99,,,-99.99,,2015-08-01 09:56:00,
2015-08-01 03:03:00,-999.9,-99.9,29.93,West,267,14.0,21.0,-999,-99.99,,,-99.99,,2015-08-01 10:03:00,
2015-08-01 03:13:00,63.0,-99.9,29.93,WSW,256,15.0,19.0,-999,-99.99,,,-99.99,,2015-08-01 10:13:00,
2015-08-01 03:23:00,63.0,-99.9,29.93,West,262,12.0,17.0,-999,-99.99,,,-99.99,,2015-08-01 10:23:00,
2015-08-01 03:34:00,63.0,-99.9,29.93,WSW,254,14.0,19.0,-999,-99.99,,,-99.99,,2015-08-01 10:34:00,
2015-08-01 03:44:00,63.0,-99.9,29.93,West,269,14.0,24.0,-999,-99.99,,,-99.99,,2015-08-01 10:44:00,
2015-08-01 04:04:00,63.0,-99.9,29.93,West,260,13.0,18.0,-999,-99.99,,,-99.99,,2015-08-01 11:04:00,
2015-08-01 04:13:00,63.0,-99.9,29.93,West,259,12.0,18.0,-999,-99.99,,,-99.99,,2015-08-01 11:13:00,
2015-08-01 04:24:00,63.0,-99.9,29.93,West,259,12.0,18.0,-999,-99.99,,,-99.99,,2015-08-01 11:24:00,
2015-08-01 04:35:00,-999.9,-99.9,29.93,West,271,14.0,18.0,-999,-99.99,,,-99.99,,2015-08-01 11:35:00,
2015-08-01 04:44:00,62.0,-99.9,29.93,West,268,15.0,19.0,-999,-99.99,,,-99.99,,2015-08-01 11:44:00,
2015-08-01 05:04:00,63.0,-99.9,29.93,West,269,16.0,19.0,-999,-99.99,,,-99.99,,2015-08-01 12:04:00,
2015-08-01 05:13:00,63.0,-99.9,29.93,West,263,13.0,18.0,-999,-99.99,,,-99.99,,2015-08-01 12:13:00,
2015-08-01 05:24:00,63.0,-99.9,29.93,West,259,13.0,-999.0,-999,-99.99,,,-99.99,,2015-08-01 12:24:00,
2015-08-01 05:34:00,63.0,-99.9,29.94,WSW,250,14.0,20.0,-999,-99.99,,,-99.99,,2015-08-01 12:34:00,
2015-08-01 05:44:00,63.0,-99.9,29.94,West,269,17.0,20.0,-999,-99.99,,,-99.99,,2015-08-01 12:44:00,
2015-08-01 06:04:00,63.0,-99.9,29.94,West,262,19.0,23.0,-999,-99.99,,,-99.99,,2015-08-01 13:04:00,
2015-08-01 06:13:00,63.0,-99.9,29.95,West,265,16.0,21.0,-999,-99.99,,,-99.99,,2015-08-01 13:13:00,
2015-08-01 06:24:00,63.0,-99.9,29.95,WSW,258,16.0,24.0,-999,-99.99,,,-99.99,,2015-08-01 13:24:00,
2015-08-01 06:34:00,63.0,-99.9,29.95,West,268,15.0,20.0,-999,-99.99,,,-99.99,,2015-08-01 13:34:00,
2015-08-01 06:44:00,63.0,-99.9,29.95,West,264,19.0,26.0,-999,-99.99,,,-99.99,,2015-08-01 13:44:00,
2015-08-01 07:03:00,63.0,-99.9,29.96,West,272,16.0,21.0,-999,-99.99,,,-99.99,,2015-08-01 14:03:00,
2015-08-01 07:13:00,63.0,-99.9,29.97,West,267,14.0,20.0,-999,-99.99,,,-99.99,,2015-08-01 14:13:00,
2015-08-01 07:33:00,63.0,-99.9,29.97,West,275,16.0,23.0,-999,-99.99,,,-99.99,,2015-08-01 14:33:00,
2015-08-01 07:44:00,63.0,-99.9,29.98,West,273,17.0,21.0,-999,-99.99,,,-99.99,,2015-08-01 14:44:00,
2015-08-01 08:03:00,63.0,-99.9,29.98,West,260,15.0,21.0,-999,-99.99,,,-99.99,,2015-08-01 15:03:00,
2015-08-01 08:13:00,63.0,-99.9,29.98,West,266,20.0,24.0,-999,-99.99,,,-99.99,,2015-08-01 15:13:00,
2015-08-01 08:34:00,64.0,-99.9,29.98,West,274,17.0,21.0,-999,-99.99,,,-99.99,,2015-08-01 15:34:00,
2015-08-01 08:44:00,64.0,-99.9,29.98,West,262,17.0,24.0,-999,-99.99,,,-99.99,,2015-08-01 15:44:00,
2015-08-01 09:03:00,64.0,-99.9,29.99,West,259,20.0,24.0,-999,-99.99,,,-99.99,,2015-08-01 16:03:00,
2015-08-01 09:13:00,64.0,-99.9,29.99,WSW,246,15.0,23.0,-999,-99.99,,,-99.99,,2015-08-01 16:13:00,
2015-08-01 09:33:00,64.0,-99.9,30.00,WSW,254,15.0,20.0,-999,-99.99,,,-99.99,,2015-08-01 16:33:00,
2015-08-01 09:44:00,64.0,-99.9,29.99,West,264,17.0,22.0,-999,-99.99,,,-99.99,,2015-08-01 16:44:00,
2015-08-01 10:03:00,65.0,-99.9,29.99,WSW,245,14.0,21.0,-999,-99.99,,,-99.99,,2015-08-01 17:03:00,
2015-08-01 10:34:00,65.0,-99.9,29.99,West,263,17.0,20.0,-999,-99.99,,,-99.99,,2015-08-01 17:34:00,
2015-08-01 10:44:00,66.0,-99.9,29.99,WSW,256,14.0,20.0,-999,-99.99,,,-99.99,,2015-08-01 17:44:00,
2015-08-01 11:04:00,66.0,-99.9,29.99,WNW,286,16.0,18.0,-999,-99.99,,,-99.99,,2015-08-01 18:04:00,
2015-08-01 11:13:00,66.0,-99.9,29.98,WNW,289,15.0,19.0,-999,-99.99,,,-99.99,,2015-08-01 18:13:00,
2015-08-01 11:34:00,66.0,-99.9,29.98,WNW,296,17.0,21.0,-999,-99.99,,,-99.99,,2015-08-01 18:34:00,
2015-08-01 11:44:00,67.0,-99.9,29.97,WNW,293,19.0,21.0,-999,-99.99,,,-99.99,,2015-08-01 18:44:00,
2015-08-01 11:54:00,67.0,-99.9,29.97,WNW,297,18.0,21.0,-999,-99.99,,,-99.99,,2015-08-01 18:54:00,
2015-08-01 12:04:00,68.0,-99.9,29.97,WNW,293,18.0,21.0,-999,-99.99,,,-99.99,,2015-08-01 19:04:00,
2015-08-01 12:13:00,68.0,-99.9,29.96,WNW,293,16.0,20.0,-999,-99.99,,,-99.99,,2015-08-01 19:13:00,
2015-08-01 12:24:00,69.0,-99.9,29.96,WNW,294,17.0,20.0,-999,-99.99,,,-99.99,,2015-08-01 19:24:00,
2015-08-01 12:34:00,69.0,-99.9,29.96,WNW,293,18.0,21.0,-999,-99.99,,,-99.99,,2015-08-01 19:34:00,
2015-08-01 12:44:00,70.0,-99.9,29.96,WNW,295,17.0,20.0,-999,-99.99,,,-99.99,,2015-08-01 19:44:00,
2015-08-01 13:05:00,71.0,-99.9,29.95,WNW,285,15.0,20.0,-999,-99.99,,,-99.99,,2015-08-01 20:05:00,
2015-08-01 13:13:00,72.0,-99.9,29.95,West,281,14.0,18.0,-999,-99.99,,,-99.99,,2015-08-01 20:13:00,
2015-08-01 13:23:00,72.0,-99.9,29.94,West,260,13.0,18.0,-999,-99.99,,,-99.99,,2015-08-01 20:23:00,
2015-08-01 13:34:00,73.0,-99.9,29.94,West,260,15.0,17.0,-999,-99.99,,,-99.99,,2015-08-01 20:34:00,
2015-08-01 13:44:00,74.0,-99.9,29.93,West,261,14.0,17.0,-999,-99.99,,,-99.99,,2015-08-01 20:44:00,
2015-08-01 14:04:00,74.0,-99.9,29.93,WSW,254,15.0,17.0,-999,-99.99,,,-99.99,,2015-08-01 21:04:00,
2015-08-01 14:13:00,75.0,-99.9,29.92,West,270,11.0,16.0,-999,-99.99,,,-99.99,,2015-08-01 21:13:00,
2015-08-01 14:24:00,76.0,-99.9,29.92,West,274,13.0,19.0,-999,-99.99,,,-99.99,,2015-08-01 21:24:00,
2015-08-01 14:34:00,75.0,-99.9,29.91,West,275,13.0,14.0,-999,-99.99,,,-99.99,,2015-08-01 21:34:00,
2015-08-01 14:44:00,76.0,-99.9,29.91,West,263,14.0,17.0,-999,-99.99,,,-99.99,,2015-08-01 21:44:00,
2015-08-01 15:03:00,77.0,-99.9,29.90,West,271,15.0,17.0,-999,-99.99,,,-99.99,,2015-08-01 22:03:00,
2015-08-01 15:13:00,77.0,-99.9,29.89,West,272,13.0,18.0,-999,-99.99,,,-99.99,,2015-08-01 22:13:00,
2015-08-01 15:34:00,78.0,-99.9,29.89,WSW,258,14.0,16.0,-999,-99.99,,,-99.99,,2015-08-01 22:34:00,
2015-08-01 16:05:00,79.0,-99.9,29.88,West,264,16.0,18.0,-999,-99.99,,,-99.99,,2015-08-01 23:05:00,
2015-08-01 16:13:00,78.0,-99.9,29.87,West,259,16.0,21.0,-999,-99.99,,,-99.99,,2015-08-01 23:13:00,
2015-08-01 16:23:00,78.0,-99.9,29.87,West,261,16.0,18.0,-999,-99.99,,,-99.99,,2015-08-01 23:23:00,
2015-08-01 16:34:00,78.0,-99.9,29.87,West,260,13.0,18.0,-999,-99.99,,,-99.99,,2015-08-01 23:34:00,
2015-08-01 16:44:00,78.0,-99.9,29.87,West,266,16.0,20.0,-999,-99.99,,,-99.99,,2015-08-01 23:44:00,
2015-08-01 17:03:00,78.0,-99.9,29.87,West,264,14.0,20.0,-999,-99.99,,,-99.99,,2015-08-02 00:03:00,
2015-08-01 17:13:00,78.0,-99.9,29.87,West,259,13.0,18.0,-999,-99.99,,,-99.99,,2015-08-02 00:13:00,
2015-08-01 17:34:00,78.0,-99.9,29.86,WSW,243,12.0,18.0,-999,-99.99,,,-99.99,,2015-08-02 00:34:00,
2015-08-01 17:44:00,78.0,-99.9,29.86,WSW,245,11.0,16.0,-999,-99.99,,,-99.99,,2015-08-02 00:44:00,
2015-08-01 18:03:00,78.0,-99.9,29.86,WSW,251,11.0,15.0,-999,-99.99,,,-99.99,,2015-08-02 01:03:00,
2015-08-01 18:13:00,78.0,-99.9,29.86,West,259,13.0,17.0,-999,-99.99,,,-99.99,,2015-08-02 01:13:00,
2015-08-01 18:33:00,77.0,-99.9,29.87,SW,229,13.0,15.0,-999,-99.99,,,-99.99,,2015-08-02 01:33:00,
2015-08-01 19:03:00,73.0,-99.9,29.87,SW,226,14.0,19.0,-999,-99.99,,,-99.99,,2015-08-02 02:03:00,
2015-08-01 19:13:00,73.0,-99.9,29.87,SW,222,17.0,20.0,-999,-99.99,,,-99.99,,2015-08-02 02:13:00,
2015-08-01 19:33:00,72.0,-99.9,29.87,SW,220,14.0,18.0,-999,-99.99,,,-99.99,,2015-08-02 02:33:00,
2015-08-01 19:44:00,72.0,-99.9,29.87,SW,220,13.0,18.0,-999,-99.99,,,-99.99,,2015-08-02 02:44:00,
2015-08-01 19:53:00,71.0,-99.9,29.87,SW,222,14.0,18.0,-999,-99.99,,,-99.99,,2015-08-02 02:53:00,
2015-08-01 20:03:00,71.0,-99.9,29.87,SW,219,17.0,19.0,-999,-99.99,,,-99.99,,2015-08-02 03:03:00,
2015-08-01 20:13:00,71.0,-99.9,29.88,WSW,243,10.0,12.0,-999,-99.99,,,-99.99,,2015-08-02 03:13:00,
2015-08-01 20:24:00,70.0,-99.9,29.88,SW,220,14.0,15.0,-999,-99.99,,,-99.99,,2015-08-02 03:24:00,
2015-08-01 20:33:00,70.0,-99.9,29.88,SW,226,15.0,-999.0,-999,-99.99,,,-99.99,,2015-08-02 03:33:00,